Weather History for Whidbey Island, WA

Change the Weather History Date:

Wednesday, October 24, 2012

  Actual Average Record
Temperature  
Mean Temperature 48 °F -  
Max Temperature 53 °F 52 °F 61 °F (2005)
Min Temperature 43 °F 39 °F 35 °F (1997)
Degree Days  
Heating Degree Days 18    
Moisture  
Dew Point 40 °F    
Average Humidity 79    
Maximum Humidity 87    
Minimum Humidity 63    
Precipitation  
Precipitation 0.01 in - - ()
Sea Level Pressure  
Sea Level Pressure 29.99 in    
Wind  
Wind Speed 8 mph (East)    
Max Wind Speed 15 mph    
Max Gust Speed 17 mph    
Visibility 10 miles    
Events Rain    
Averages and records for this station are not official NWS values.
T = Trace of Precipitation, MM = Missing Value Source: NWS Daily Summary

Daily Weather History Graph

Daily Weather History Graph

Search for Another Location

Airport:

Trip Planner

Search our weather history database for the weather conditions in past years. The results will help you decide how hot, cold, wet, or windy it might be!

Date:

Astronomy

Oct. 24, 2012 Rise Set
Actual Time 7:44 AM PDT 6:03 PM PDT
Civil Twilight 7:12 AM PDT 6:35 PM PDT
Nautical Twilight 6:36 AM PDT 7:12 PM PDT
Astronomical Twilight 6:00 AM PDT 7:48 PM PDT
Moon 3:41 PM PDT (10/24) 2:23 AM PDT (10/24)
Length of Visible Light 11h 23m
Length of Day
10h 18m
Waxing Gibbous, 77% of the Moon is Illuminated
Oct 24
Waxing Gibbous
Oct 29
Full
Nov 6
Last Quarter
Nov 13
New
Nov 20
First Quarter

Hourly Weather History & Observations

Time (PDT) Temp. Windchill Dew Point Humidity Pressure Visibility Wind Dir Wind Speed Gust Speed Precip Events Conditions
12:56 AM 45.0 °F 40.6 °F 37.0 °F 74% 29.88 in 10.0 mi East 8.1 mph - N/A   Mostly Cloudy
1:56 AM 45.0 °F 40.6 °F 36.0 °F 71% 29.88 in 10.0 mi East 8.1 mph - N/A   Overcast
2:56 AM 45.0 °F 41.8 °F 37.9 °F 76% 29.88 in 10.0 mi East 5.8 mph - N/A   Overcast
3:56 AM 43.0 °F 38.8 °F 37.9 °F 82% 29.88 in 10.0 mi ESE 6.9 mph - N/A   Overcast
4:56 AM 43.0 °F 40.3 °F 37.9 °F 82% 29.89 in 10.0 mi East 4.6 mph - 0.00 in Rain Light Rain
5:24 AM 44.6 °F 40.7 °F 37.4 °F 76% 29.88 in 10.0 mi East 6.9 mph - 0.00 in   Overcast
5:42 AM 44.6 °F 41.4 °F 37.4 °F 76% 29.89 in 10.0 mi East 5.8 mph - 0.00 in Rain Light Rain
5:56 AM 44.1 °F 40.1 °F 37.9 °F 79% 29.90 in 10.0 mi East 6.9 mph - 0.00 in Rain Light Rain
6:56 AM 43.0 °F 37.2 °F 39.0 °F 86% 29.91 in 8.0 mi East 10.4 mph - 0.01 in Rain Light Rain
7:56 AM 43.0 °F 38.2 °F 39.0 °F 86% 29.93 in 8.0 mi East 8.1 mph - 0.00 in Rain Light Rain
8:56 AM 44.1 °F 37.1 °F 39.0 °F 82% 29.94 in 6.0 mi East 15.0 mph - 0.00 in Rain Light Rain
9:56 AM 45.0 °F 39.3 °F 41.0 °F 86% 29.95 in 8.0 mi East 11.5 mph - 0.00 in Rain Light Rain
10:22 AM 44.6 °F 38.8 °F 41.0 °F 87% 29.94 in 8.0 mi East 11.5 mph - 0.00 in   Overcast
10:56 AM 46.0 °F 41.0 °F 41.0 °F 83% 29.96 in 10.0 mi East 10.4 mph - 0.00 in   Overcast
11:56 AM 46.9 °F - 41.0 °F 80% 29.98 in 10.0 mi East 9.2 mph - N/A   Overcast
12:56 PM 48.9 °F - 41.0 °F 74% 29.99 in 10.0 mi ESE 11.5 mph - N/A   Overcast
1:56 PM 51.1 °F - 41.0 °F 68% 29.99 in 10.0 mi ESE 11.5 mph 17.3 mph N/A   Overcast
2:56 PM 52.0 °F - 39.9 °F 63% 30.00 in 10.0 mi ESE 8.1 mph - N/A   Mostly Cloudy
3:56 PM 51.1 °F - 39.9 °F 66% 30.02 in 10.0 mi ESE 8.1 mph - N/A   Mostly Cloudy
4:56 PM 50.0 °F - 39.9 °F 68% 30.04 in 10.0 mi East 6.9 mph - N/A   Overcast
5:56 PM 48.0 °F - 39.9 °F 74% 30.06 in 10.0 mi ESE 5.8 mph - N/A   Overcast
6:56 PM 46.0 °F 43.1 °F 39.9 °F 79% 30.08 in 10.0 mi East 5.8 mph - N/A   Mostly Cloudy
7:56 PM 46.9 °F - 41.0 °F 80% 30.10 in 10.0 mi East 3.5 mph - N/A   Overcast
8:56 PM 46.0 °F 44.8 °F 42.1 °F 86% 30.12 in 10.0 mi ESE 3.5 mph - N/A   Overcast
9:56 PM 46.0 °F 43.9 °F 41.0 °F 83% 30.15 in 10.0 mi East 4.6 mph - N/A   Overcast
10:56 PM 44.1 °F 41.5 °F 39.9 °F 85% 30.17 in 10.0 mi East 4.6 mph - N/A   Mostly Cloudy
11:24 PM 44.6 °F 41.4 °F 41.0 °F 87% 30.17 in 10.0 mi ESE 5.8 mph - N/A   Overcast
11:56 PM 45.0 °F 41.2 °F 41.0 °F 86% 30.19 in 10.0 mi SE 6.9 mph - N/A   Overcast